| time (UTC) | temp F | wind direction | speed MPH | gust MPH | rain 1hr in | rain 24hr in | rain mn in | humidity % | barometer mb |
| 20260510144602 | 60 | 116 | 0.0 | 1.0 | 0.00 | 0.00 | 0.00 | 57 | 1019.0 |
| 20260510143102 | 56 | 6 | 0.0 | 0.0 | 0.00 | 0.00 | 0.00 | 65 | 1019.0 |
| 20260510141601 | 54 | 6 | 0.0 | 0.0 | 0.00 | 0.00 | 0.00 | 68 | 1019.1 |
| 20260510134601 | 47 | 6 | 0.0 | 0.0 | 0.00 | 0.00 | 0.00 | 83 | 1019.1 |
| 20260510133101 | 46 | 6 | 0.0 | 0.0 | 0.00 | 0.00 | 0.00 | 81 | 1019.1 |
| 20260510131601 | 43 | 6 | 0.0 | 1.0 | 0.00 | 0.00 | 0.00 | 84 | 1019.2 |
| 20260510124601 | 40 | 343 | 0.0 | 2.0 | 0.00 | 0.00 | 0.00 | 83 | 1019.2 |
| 20260510121602 | 40 | 347 | 0.0 | 1.0 | 0.00 | 0.00 | 0.00 | 83 | 1019.2 |
| 20260510113101 | 42 | 354 | 0.0 | 1.0 | 0.00 | 0.00 | 0.00 | 79 | 1019.2 |
| 20260510111602 | 43 | 354 | 0.0 | 1.0 | 0.00 | 0.00 | 0.00 | 79 | 1019.2 |
| 20260510104602 | 42 | 4 | 0.0 | 1.0 | 0.00 | 0.00 | 0.00 | 80 | 1019.4 |
| 20260510101602 | 44 | 319 | 0.0 | 0.0 | 0.00 | 0.00 | 0.00 | 79 | 1019.4 |
| 20260510094601 | 44 | 27 | 0.0 | 2.0 | 0.00 | 0.00 | 0.00 | 79 | 1019.3 |
| 20260510091601 | 45 | 355 | 0.0 | 1.0 | 0.00 | 0.00 | 0.00 | 77 | 1019.2 |
| 20260510090101 | 46 | 341 | 0.0 | 2.0 | 0.00 | 0.00 | 0.00 | 74 | 1019.2 |
| 20260510084602 | 47 | 350 | 0.0 | 1.0 | 0.00 | 0.00 | 0.00 | 71 | 1019.2 |
| 20260510083102 | 49 | 281 | 0.0 | 1.0 | 0.00 | 0.00 | 0.00 | 67 | 1019.2 |
| 20260510081601 | 51 | 36 | 1.0 | 1.0 | 0.00 | 0.00 | 0.00 | 66 | 1019.2 |
| 20260510080105 | 52 | 5 | 1.0 | 2.0 | 0.00 | 0.00 | 0.00 | 62 | 1019.3 |
| 20260510074602 | 53 | 328 | 0.0 | 2.0 | 0.00 | 0.00 | 0.00 | 60 | 1019.4 |
| 20260510073101 | 55 | 337 | 1.0 | 6.0 | 0.00 | 0.00 | 0.00 | 56 | 1019.4 |
| 20260510071601 | 54 | 333 | 1.0 | 5.0 | 0.00 | 0.00 | 0.00 | 58 | 1019.4 |
| 20260510064601 | 56 | 346 | 2.0 | 3.0 | 0.00 | 0.00 | 0.00 | 55 | 1019.4 |
| 20260510063101 | 56 | 338 | 2.0 | 4.0 | 0.00 | 0.00 | 0.00 | 56 | 1019.3 |
| 20260510061601 | 57 | 325 | 0.0 | 4.0 | 0.00 | 0.00 | 0.00 | 53 | 1019.3 |
| 20260510060101 | 57 | 334 | 3.0 | 5.0 | 0.00 | 0.00 | 0.00 | 55 | 1019.3 |
| 20260510054601 | 57 | 329 | 0.0 | 4.0 | 0.00 | 0.00 | 0.00 | 54 | 1019.4 |
| 20260510053101 | 58 | 20 | 1.0 | 4.0 | 0.00 | 0.00 | 0.00 | 51 | 1019.3 |
| 20260510051601 | 58 | 15 | 3.0 | 5.0 | 0.00 | 0.00 | 0.00 | 52 | 1019.3 |
| 20260510044602 | 59 | 341 | 1.0 | 4.0 | 0.00 | 0.00 | 0.00 | 50 | 1019.2 |
| 20260510041602 | 61 | 343 | 1.0 | 6.0 | 0.00 | 0.00 | 0.00 | 48 | 1018.9 |
| 20260510034601 | 60 | 333 | 0.0 | 6.0 | 0.00 | 0.00 | 0.00 | 51 | 1018.6 |
| 20260510033101 | 59 | 351 | 3.0 | 7.0 | 0.00 | 0.00 | 0.00 | 53 | 1018.6 |
| 20260510031601 | 60 | 327 | 2.0 | 8.0 | 0.00 | 0.00 | 0.00 | 53 | 1018.5 |
| 20260510024601 | 62 | 355 | 3.0 | 4.0 | 0.00 | 0.00 | 0.00 | 52 | 1018.2 |
| 20260510023102 | 65 | 338 | 0.0 | 2.0 | 0.00 | 0.00 | 0.00 | 50 | 1018.1 |
| 20260510021602 | 68 | 276 | 1.0 | 2.0 | 0.00 | 0.00 | 0.00 | 52 | 1018.1 |
| 20260510014601 | 75 | 273 | 2.0 | 2.0 | 0.00 | 0.00 | 0.00 | 35 | 1018.1 |
| 20260510013101 | 76 | 20 | 0.0 | 2.0 | 0.00 | 0.00 | 0.00 | 27 | 1018.1 |
| 20260510011601 | 76 | 44 | 0.0 | 2.0 | 0.00 | 0.00 | 0.00 | 26 | 1018.2 |
| 20260510004602 | 77 | 106 | 0.0 | 2.0 | 0.00 | 0.00 | 0.00 | 30 | 1018.2 |
| 20260510003102 | 75 | 34 | 1.0 | 3.0 | 0.00 | 0.00 | 0.00 | 29 | 1018.2 |
| 20260510001602 | 75 | 126 | 0.0 | 6.0 | 0.00 | 0.00 | 0.00 | 30 | 1018.2 |
| 20260509234601 | 76 | 113 | 1.0 | 4.0 | 0.00 | 0.00 | 0.00 | 30 | 1018.4 |
| 20260509233101 | 76 | 113 | 1.0 | 4.0 | 0.00 | 0.00 | 0.00 | 29 | 1018.5 |
| 20260509231601 | 75 | 131 | 2.0 | 6.0 | 0.00 | 0.00 | 0.00 | 29 | 1018.6 |
| 20260509224602 | 76 | 26 | 0.0 | 5.0 | 0.00 | 0.00 | 0.00 | 29 | 1018.9 |
| 20260509223105 | 74 | 122 | 1.0 | 7.0 | 0.00 | 0.00 | 0.00 | 33 | 1019.2 |
| 20260509221601 | 74 | 91 | 2.0 | 6.0 | 0.00 | 0.00 | 0.00 | 30 | 1019.2 |
| 20260509214601 | 73 | 13 | 2.0 | 8.0 | 0.00 | 0.00 | 0.00 | 32 | 1019.8 |
| 20260509213101 | 72 | 133 | 2.0 | 6.0 | 0.00 | 0.00 | 0.00 | 34 | 1019.9 |
| 20260509204602 | 71 | 23 | 2.0 | 7.0 | 0.00 | 0.00 | 0.00 | 36 | 1020.2 |
| 20260509201602 | 70 | 355 | 1.0 | 3.0 | 0.00 | 0.00 | 0.00 | 37 | 1020.5 |
| 20260509194601 | 69 | 54 | 1.0 | 5.0 | 0.00 | 0.00 | 0.00 | 33 | 1020.9 |
| 20260509193102 | 68 | 134 | 0.0 | 5.0 | 0.00 | 0.00 | 0.00 | 33 | 1021.0 |
| 20260509191602 | 67 | 61 | 0.0 | 5.0 | 0.00 | 0.00 | 0.00 | 35 | 1021.3 |
| 20260509184601 | 67 | 198 | 1.0 | 4.0 | 0.00 | 0.00 | 0.00 | 36 | 1021.7 |
| 20260509183101 | 66 | 249 | 0.0 | 4.0 | 0.00 | 0.00 | 0.00 | 39 | 1021.7 |
| 20260509181602 | 64 | 193 | 0.0 | 5.0 | 0.00 | 0.00 | 0.00 | 41 | 1022.0 |
| 20260509174602 | 64 | 193 | 0.0 | 5.0 | 0.00 | 0.00 | 0.00 | 41 | 1022.0 |
| 20260509171602 | 62 | 163 | 0.0 | 4.0 | 0.00 | 0.00 | 0.00 | 47 | 1022.4 |
| 20260509164602 | 61 | 125 | 1.0 | 4.0 | 0.00 | 0.00 | 0.00 | 48 | 1022.4 |
| 20260509163102 | 61 | 116 | 1.0 | 4.0 | 0.00 | 0.00 | 0.00 | 46 | 1022.5 |
| 20260509161602 | 60 | 210 | 0.0 | 1.0 | 0.00 | 0.00 | 0.00 | 48 | 1022.4 |
| 20260509153105 | 56 | 106 | 0.0 | 1.0 | 0.00 | 0.00 | 0.00 | 52 | 1022.5 |
| 20260509151602 | 55 | 95 | 0.0 | 1.0 | 0.00 | 0.00 | 0.00 | 54 | 1022.4 |